Regional Weather Roundup
Issued by NWS Kansas City/Pleasant Hill, MO

Home | Current Version | Previous Version | Graphics & Text | Print | Product List | Glossary Off
Versions: 1 2 3 4 5 6 7 8 9 10 11 12 13 14 15 16 17 18 19 20 21 22 23 24 25 26 27 28 29 30 31 32 33 34 35 36 37 38 39 40 41 42 43 44 45 46 47 48 49 50

000
ASUS43 KEAX 270110
RWREAX

WEATHER ROUNDUP FOR EASTERN KANSAS AND NORTHWEST MISSOURI
NATIONAL WEATHER SERVICE KANSAS CITY/PLEASANT HILL MO
800 PM CDT TUE JUL 26 2016

KSZ040-057-103>105-MOZ028-029-037-043-270200-
...KANSAS CITY METROPOLITAN AREA...

CITY           SKY/WX    TMP DP  RH WIND       PRES   REMARKS
K.C. INTL      PTCLDY    83  66  56 E9        30.01R
K.C. DOWNTOWN  CLEAR     84  67  56 E12       29.99R
LEES SUMMIT    CLOUDY    83  68  60 NE5       30.01R
OLATHE - IXD   CLEAR     83  69  62 E7        30.01R
OLATHE - OJC   CLEAR     81  67  62 E7        30.01R
LAWRENCE       CLEAR     81  69  67 E6        29.99R

$$

MOZ001>008-011>017-020>025-030>033-038>040-044>046-053-054-270200-
...NORTHERN AND CENTRAL MISSOURI...

CITY           SKY/WX    TMP DP  RH WIND       PRES   REMARKS
ST. JOSEPH     CLEAR     83  65  54 E9        30.00R
MOSBY          CLEAR     81  64  57 E3        30.00S
WHITEMAN AFB   PTCLDY    82  73  76 NE5       29.98S
CLINTON        PTCLDY    82  73  74 NE5       29.99S
SEDALIA        CLEAR     83  71  67 NE5       30.00F
WARSAW         NOT AVBL
CHILLICOTHE      N/A     83  69  62 SE3       30.01F
KIRKSVILLE     CLEAR     81  65  58 E3        30.03S

$$

MOZ041-047>049-056>058-063>065-088>090-097-270200-
...EASTERN AND SOUTHERN MISSOURI...

CITY           SKY/WX    TMP DP  RH WIND       PRES   REMARKS
ST. LOUIS INTL CLOUDY    82  75  79 N3        29.98R THUNDER
SPIRIT OF STL  CLOUDY    81  74  79 CALM      29.96S
COLUMBIA       MOCLDY    81  74  79 NE3       29.99F
JEFFERSON CITY PTCLDY    80  72  76 CALM      29.97F
ROLLA          PTCLDY    76  73  91 CALM      29.98F
OSAGE BEACH    CLOUDY    77  72  84 S5        29.99F
SPRINGFIELD    CLOUDY    75  72  90 SE5       29.99F
BRANSON        CLOUDY    75  75 100 CALM      30.02R FOG
JOPLIN         CLOUDY    75  73  93 CALM      29.99S
WEST PLAINS    CLOUDY    76  72  87 CALM      30.01F

$$

IAZ060-094-KSZ022-034>040-054-083-096-NEZ052-066-093-270200-
...KANSAS...SOUTHEAST NEBRASKA AND IOWA...

CITY           SKY/WX    TMP DP  RH WIND       PRES   REMARKS
TOPEKA         CLEAR     85  67  54 E6        29.98S
MANHATTAN      CLEAR     84  71  65 E6        29.97R
EMPORIA        CLEAR     82  68  62 E6        29.99R
CHANUTE        CLOUDY    85  73  67 E10       29.97R HX  91
WICHITA        PTCLDY    86  71  60 NE17      29.96R HX  91
OMAHA          PTCLDY    84  66  54 SE9       29.99S
LINCOLN        PTCLDY    83  63  50 E12       30.00S
FALLS CITY     CLEAR     80  70  71 E5        29.99S
LAMONI         CLEAR     79  68  69 NE5       30.03R
DES MOINES     PTCLDY    82  66  58 SE8       30.01S

$$




USA.gov is the U.S. government's official web portal to all federal, state and local government web resources and services.